Time,TemperatureF,DewpointF,PressureIn,WindDirection,WindDirectionDegrees,WindSpeedMPH,WindSpeedGustMPH,Humidity,HourlyPrecipIn,Conditions,Clouds,dailyrainin,SolarRadiationWatts/m^2,SoftwareType,DateUTC
2013-05-10 00:00:00,65.8,54.5,29.66,ESE,111,5.0,8.0,67,0.00,,---,0.00,0.00,VWS V14.00,2013-05-10 05:00:00,
2013-05-10 00:01:00,65.8,54.5,29.66,ESE,111,4.0,8.0,67,0.00,,---,0.52,0.00,VWS V14.00,2013-05-10 05:01:00,
2013-05-10 00:06:00,65.9,54.7,29.66,ESE,111,2.0,6.0,67,0.00,,---,0.00,0.00,VWS V14.00,2013-05-10 05:06:00,
2013-05-10 00:10:00,65.9,54.7,29.66,ESE,111,2.0,6.0,67,0.00,,---,0.00,0.00,VWS V14.00,2013-05-10 05:10:00,
2013-05-10 00:11:00,65.9,54.7,29.66,ESE,111,1.0,6.0,67,0.00,,---,0.00,0.00,VWS V14.00,2013-05-10 05:11:00,
2013-05-10 00:16:00,65.9,55.0,29.66,ESE,111,1.0,5.0,68,0.00,,---,0.00,0.00,VWS V14.00,2013-05-10 05:16:00,
2013-05-10 00:20:00,65.9,55.0,29.66,ESE,111,1.0,5.0,68,0.00,,---,0.00,0.00,VWS V14.00,2013-05-10 05:20:00,
2013-05-10 00:21:00,65.9,55.0,29.66,ESE,111,2.0,5.0,68,0.00,,---,0.00,0.00,VWS V14.00,2013-05-10 05:21:00,
2013-05-10 00:26:00,66.0,55.2,29.66,ESE,111,0.0,5.0,68,0.00,,---,0.00,0.00,VWS V14.00,2013-05-10 05:26:00,
2013-05-10 00:30:00,66.0,55.2,29.66,ESE,111,0.0,5.0,68,0.00,,---,0.00,0.00,VWS V14.00,2013-05-10 05:30:00,
2013-05-10 00:31:00,66.0,55.2,29.66,ESE,111,0.0,5.0,68,0.00,,---,0.00,0.00,VWS V14.00,2013-05-10 05:31:00,
2013-05-10 00:36:00,66.1,55.2,29.67,ESE,111,0.0,4.0,68,0.00,,---,0.00,0.00,VWS V14.00,2013-05-10 05:36:00,
2013-05-10 00:40:00,66.2,55.3,29.66,ESE,111,1.0,4.0,68,0.00,,---,0.00,0.00,VWS V14.00,2013-05-10 05:40:00,
2013-05-10 00:41:00,66.2,55.3,29.66,ESE,111,1.0,4.0,68,0.00,,---,0.00,0.00,VWS V14.00,2013-05-10 05:41:00,
2013-05-10 00:46:00,66.3,55.8,29.67,ESE,111,2.0,4.0,69,0.00,,---,0.00,0.00,VWS V14.00,2013-05-10 05:46:00,
2013-05-10 00:50:00,66.2,55.7,29.67,ESE,111,0.0,5.0,69,0.00,,---,0.00,0.00,VWS V14.00,2013-05-10 05:50:00,
2013-05-10 00:51:00,66.2,55.7,29.67,ESE,111,4.0,5.0,69,0.00,,---,0.00,0.00,VWS V14.00,2013-05-10 05:51:00,
2013-05-10 00:56:00,66.1,55.7,29.68,ESE,111,2.0,4.0,69,0.00,,---,0.00,0.00,VWS V14.00,2013-05-10 05:56:00,
2013-05-10 01:00:00,65.9,55.8,29.67,ESE,111,0.0,4.0,70,0.00,,---,0.00,0.00,VWS V14.00,2013-05-10 06:00:00,
2013-05-10 01:01:00,65.9,55.8,29.67,ESE,111,0.0,4.0,70,0.00,,---,0.00,0.00,VWS V14.00,2013-05-10 06:01:00,
2013-05-10 01:06:00,65.8,56.2,29.67,ESE,111,2.0,4.0,71,0.00,,---,0.00,0.00,VWS V14.00,2013-05-10 06:06:00,
2013-05-10 01:10:00,65.7,56.4,29.67,ESE,111,0.0,4.0,72,0.00,,---,0.00,0.00,VWS V14.00,2013-05-10 06:10:00,
2013-05-10 01:11:00,65.7,56.4,29.67,ESE,111,0.0,4.0,72,0.00,,---,0.00,0.00,VWS V14.00,2013-05-10 06:11:00,
2013-05-10 01:16:00,65.4,56.2,29.65,ESE,111,1.0,4.0,72,0.00,,---,0.00,0.00,VWS V14.00,2013-05-10 06:16:00,
2013-05-10 01:20:00,65.1,55.9,29.65,ESE,111,2.0,5.0,72,0.00,,---,0.00,0.00,VWS V14.00,2013-05-10 06:20:00,
2013-05-10 01:21:00,65.2,56.0,29.65,ESE,111,2.0,5.0,72,0.00,,---,0.00,0.00,VWS V14.00,2013-05-10 06:21:00,
2013-05-10 01:26:00,65.2,55.6,29.65,ESE,111,2.0,5.0,71,0.00,,---,0.00,0.00,VWS V14.00,2013-05-10 06:26:00,
2013-05-10 01:30:00,65.5,55.9,29.65,ESE,113,6.0,11.0,71,0.00,,---,0.00,0.00,VWS V14.00,2013-05-10 06:30:00,
2013-05-10 01:31:00,65.4,55.8,29.65,ESE,113,6.0,9.0,71,0.00,,---,0.00,0.00,VWS V14.00,2013-05-10 06:31:00,
2013-05-10 01:36:00,65.7,56.0,29.65,ESE,113,5.0,9.0,71,0.00,,---,0.00,0.00,VWS V14.00,2013-05-10 06:36:00,
2013-05-10 01:40:00,66.1,55.7,29.64,ESE,119,5.0,12.0,69,0.00,,---,0.00,0.00,VWS V14.00,2013-05-10 06:40:00,
2013-05-10 01:41:00,66.0,55.5,29.64,ESE,119,4.0,12.0,69,0.00,,---,0.00,0.00,VWS V14.00,2013-05-10 06:41:00,
2013-05-10 01:46:00,66.4,55.9,29.64,ESE,121,7.0,13.0,69,0.00,,---,0.00,0.00,VWS V14.00,2013-05-10 06:46:00,
2013-05-10 01:50:00,66.5,56.0,29.64,ESE,121,4.0,13.0,69,0.00,,---,0.00,0.00,VWS V14.00,2013-05-10 06:50:00,
2013-05-10 01:51:00,66.5,56.0,29.64,ESE,121,2.0,13.0,69,0.00,,---,0.00,0.00,VWS V14.00,2013-05-10 06:51:00,
2013-05-10 01:56:00,66.5,56.0,29.64,ESE,121,5.0,7.0,69,0.00,,---,0.00,0.00,VWS V14.00,2013-05-10 06:56:00,
2013-05-10 02:00:00,66.5,56.0,29.63,ESE,115,4.0,11.0,69,0.00,,---,0.00,0.00,VWS V14.00,2013-05-10 07:00:00,
2013-05-10 02:01:00,66.5,56.0,29.63,ESE,115,2.0,9.0,69,0.00,,---,0.00,0.00,VWS V14.00,2013-05-10 07:01:00,
2013-05-10 02:06:00,66.4,56.3,29.64,ESE,115,0.0,7.0,70,0.00,,---,0.00,0.00,VWS V14.00,2013-05-10 07:06:00,
2013-05-10 02:10:00,66.4,56.3,29.64,ESE,115,0.0,7.0,70,0.00,,---,0.00,0.00,VWS V14.00,2013-05-10 07:10:00,
2013-05-10 02:11:00,66.4,56.3,29.64,ESE,115,0.0,7.0,70,0.00,,---,0.00,0.00,VWS V14.00,2013-05-10 07:11:00,
2013-05-10 02:16:00,66.4,55.9,29.64,ESE,115,4.0,5.0,69,0.00,,---,0.00,0.00,VWS V14.00,2013-05-10 07:16:00,
2013-05-10 02:20:00,66.3,56.2,29.64,ESE,115,2.0,6.0,70,0.00,,---,0.00,0.00,VWS V14.00,2013-05-10 07:20:00,
2013-05-10 02:21:00,66.3,56.2,29.64,ESE,115,0.0,6.0,70,0.00,,---,0.00,0.00,VWS V14.00,2013-05-10 07:21:00,
2013-05-10 02:26:00,66.2,55.7,29.63,ESE,115,1.0,2.0,69,0.00,,---,0.00,0.00,VWS V14.00,2013-05-10 07:26:00,
2013-05-10 02:30:00,66.2,55.3,29.62,ESE,115,5.0,5.0,68,0.00,,---,0.00,0.00,VWS V14.00,2013-05-10 07:30:00,
2013-05-10 02:31:00,66.2,55.7,29.62,ESE,115,2.0,5.0,69,0.00,,---,0.00,0.00,VWS V14.00,2013-05-10 07:31:00,
2013-05-10 02:36:00,66.4,55.1,29.63,ESE,115,0.0,5.0,67,0.00,,---,0.00,0.00,VWS V14.00,2013-05-10 07:36:00,
2013-05-10 02:40:00,66.5,56.4,29.64,ESE,115,4.0,6.0,70,0.00,,---,0.00,0.00,VWS V14.00,2013-05-10 07:40:00,
2013-05-10 02:41:00,66.5,56.4,29.64,ESE,115,2.0,6.0,70,0.00,,---,0.00,0.00,VWS V14.00,2013-05-10 07:41:00,
2013-05-10 02:46:00,66.1,56.8,29.63,ESE,115,4.0,6.0,72,0.00,,---,0.00,0.00,VWS V14.00,2013-05-10 07:46:00,
2013-05-10 02:50:00,65.0,56.5,29.63,ESE,109,2.0,11.0,74,0.00,,---,0.00,0.00,VWS V14.00,2013-05-10 07:50:00,
2013-05-10 02:51:00,65.1,56.6,29.63,ESE,109,5.0,11.0,74,0.00,,---,0.00,0.00,VWS V14.00,2013-05-10 07:51:00,
2013-05-10 02:56:00,64.6,56.1,29.64,ESE,109,7.0,9.0,74,0.00,,---,0.00,0.00,VWS V14.00,2013-05-10 07:56:00,
2013-05-10 03:00:00,64.4,56.7,29.65,ESE,107,2.0,11.0,76,0.00,,---,0.00,0.00,VWS V14.00,2013-05-10 08:00:00,
2013-05-10 03:01:00,64.4,56.7,29.65,ESE,107,4.0,11.0,76,0.00,,---,0.00,0.00,VWS V14.00,2013-05-10 08:01:00,
2013-05-10 03:06:00,64.0,57.0,29.65,East,90,8.0,15.0,78,0.00,,---,0.00,0.00,VWS V14.00,2013-05-10 08:06:00,
2013-05-10 03:10:00,63.6,57.0,29.65,East,90,4.0,15.0,79,0.00,,---,0.00,0.00,VWS V14.00,2013-05-10 08:10:00,
2013-05-10 03:11:00,63.6,57.0,29.65,East,90,2.0,15.0,79,0.00,,---,0.00,0.00,VWS V14.00,2013-05-10 08:11:00,
2013-05-10 03:16:00,63.3,57.0,29.65,East,90,5.0,8.0,80,0.00,,---,0.00,0.00,VWS V14.00,2013-05-10 08:16:00,
2013-05-10 03:20:00,63.1,57.2,29.65,East,90,5.0,8.0,81,0.00,,---,0.00,0.00,VWS V14.00,2013-05-10 08:20:00,
2013-05-10 03:21:00,63.1,57.2,29.65,East,90,5.0,8.0,81,0.00,,---,0.00,0.00,VWS V14.00,2013-05-10 08:21:00,
2013-05-10 03:26:00,62.8,57.2,29.66,East,90,5.0,8.0,82,0.00,,---,0.00,0.00,VWS V14.00,2013-05-10 08:26:00,
2013-05-10 03:30:00,62.7,57.1,29.64,East,90,2.0,8.0,82,0.00,,---,0.00,0.00,VWS V14.00,2013-05-10 08:30:00,
2013-05-10 03:31:00,62.7,57.1,29.64,East,90,2.0,8.0,82,0.00,,---,0.00,0.00,VWS V14.00,2013-05-10 08:31:00,
2013-05-10 03:36:00,62.6,57.4,29.65,East,90,0.0,5.0,83,0.00,,---,0.00,0.00,VWS V14.00,2013-05-10 08:36:00,
2013-05-10 03:40:00,62.6,57.7,29.67,East,90,0.0,5.0,84,0.00,,---,0.00,0.00,VWS V14.00,2013-05-10 08:40:00,
2013-05-10 03:41:00,62.6,57.7,29.67,East,90,0.0,5.0,84,0.00,,---,0.00,0.00,VWS V14.00,2013-05-10 08:41:00,
2013-05-10 03:46:00,62.5,57.3,29.71,East,90,7.0,7.0,83,0.00,,---,0.00,0.00,VWS V14.00,2013-05-10 08:46:00,
2013-05-10 03:50:00,62.6,57.7,29.74,East,81,3.0,12.0,84,0.00,,---,0.00,0.00,VWS V14.00,2013-05-10 08:50:00,
2013-05-10 03:51:00,62.6,57.7,29.74,East,82,6.0,12.0,84,0.00,,---,0.00,0.00,VWS V14.00,2013-05-10 08:51:00,
2013-05-10 03:56:00,62.5,57.3,29.72,East,81,0.0,7.0,83,0.00,,---,0.00,0.00,VWS V14.00,2013-05-10 08:56:00,
2013-05-10 04:00:00,62.6,57.7,29.74,East,81,3.0,7.0,84,0.02,,---,0.02,0.00,VWS V14.00,2013-05-10 09:00:00,
2013-05-10 04:01:00,62.6,57.7,29.74,East,81,0.0,7.0,84,0.01,,---,0.01,0.00,VWS V14.00,2013-05-10 09:01:00,
2013-05-10 04:06:00,62.5,58.3,29.74,East,81,1.0,4.0,86,0.12,,---,0.12,0.00,VWS V14.00,2013-05-10 09:06:00,
2013-05-10 04:10:00,62.2,58.0,29.74,East,81,2.0,4.0,86,0.19,,---,0.19,0.00,VWS V14.00,2013-05-10 09:10:00,
2013-05-10 04:11:00,62.3,58.1,29.74,East,81,2.0,4.0,86,0.19,,---,0.19,0.00,VWS V14.00,2013-05-10 09:11:00,
2013-05-10 04:16:00,61.8,57.9,29.70,East,81,3.0,5.0,87,0.20,,---,0.20,0.00,VWS V14.00,2013-05-10 09:16:00,
2013-05-10 04:20:00,61.4,57.8,29.71,East,81,3.0,5.0,88,0.22,,---,0.22,0.00,VWS V14.00,2013-05-10 09:20:00,
2013-05-10 04:21:00,61.4,57.8,29.71,East,81,4.0,5.0,88,0.22,,---,0.22,0.00,VWS V14.00,2013-05-10 09:21:00,
2013-05-10 04:26:00,61.2,57.9,29.71,East,81,1.0,5.0,89,0.22,,---,0.22,0.00,VWS V14.00,2013-05-10 09:26:00,
2013-05-10 04:30:00,61.2,58.2,29.76,WNW,288,6.0,24.0,90,0.22,,---,0.22,0.00,VWS V14.00,2013-05-10 09:30:00,
2013-05-10 04:31:00,61.2,58.2,29.76,WNW,286,14.0,24.0,90,0.22,,---,0.22,0.00,VWS V14.00,2013-05-10 09:31:00,
2013-05-10 04:36:00,61.0,58.0,29.75,WNW,288,5.0,11.0,90,0.22,,---,0.22,0.00,VWS V14.00,2013-05-10 09:36:00,
2013-05-10 04:40:00,60.9,58.3,29.75,WNW,288,5.0,11.0,91,0.23,,---,0.23,0.00,VWS V14.00,2013-05-10 09:40:00,
2013-05-10 04:41:00,60.9,58.0,29.75,WNW,288,5.0,11.0,90,0.23,,---,0.23,0.00,VWS V14.00,2013-05-10 09:41:00,
2013-05-10 04:46:00,60.8,58.2,29.74,WNW,288,4.0,7.0,91,0.23,,---,0.23,0.00,VWS V14.00,2013-05-10 09:46:00,
2013-05-10 04:50:00,60.7,58.1,29.73,WNW,288,0.0,7.0,91,0.23,,---,0.23,0.00,VWS V14.00,2013-05-10 09:50:00,
2013-05-10 04:51:00,60.7,58.1,29.73,WNW,288,0.0,7.0,91,0.23,,---,0.23,0.00,VWS V14.00,2013-05-10 09:51:00,
2013-05-10 04:56:00,60.7,58.1,29.72,WNW,288,1.0,5.0,91,0.23,,---,0.23,0.00,VWS V14.00,2013-05-10 09:56:00,
2013-05-10 05:00:00,60.6,58.3,29.72,WNW,288,1.0,5.0,92,0.24,,---,0.24,0.00,VWS V14.00,2013-05-10 10:00:00,
2013-05-10 05:01:00,60.6,58.3,29.72,WNW,288,2.0,5.0,92,0.24,,---,0.24,0.00,VWS V14.00,2013-05-10 10:01:00,
2013-05-10 05:06:00,60.5,58.2,29.72,WNW,288,4.0,6.0,92,0.22,,---,0.24,0.00,VWS V14.00,2013-05-10 10:06:00,
2013-05-10 05:10:00,60.5,58.2,29.71,WNW,288,0.0,6.0,92,0.24,,---,0.26,0.00,VWS V14.00,2013-05-10 10:10:00,
2013-05-10 05:11:00,60.6,58.3,29.71,WNW,288,2.0,6.0,92,0.23,,---,0.25,0.00,VWS V14.00,2013-05-10 10:11:00,
2013-05-10 05:16:00,60.6,58.3,29.70,WNW,288,0.0,4.0,92,0.07,,---,0.26,0.00,VWS V14.00,2013-05-10 10:16:00,
2013-05-10 05:20:00,60.6,58.3,29.70,WNW,288,0.0,4.0,92,0.07,,---,0.26,0.00,VWS V14.00,2013-05-10 10:20:00,
2013-05-10 05:21:00,60.5,58.2,29.70,WNW,288,1.0,4.0,92,0.07,,---,0.26,0.00,VWS V14.00,2013-05-10 10:21:00,
2013-05-10 05:26:00,60.5,58.2,29.72,WNW,288,0.0,0.0,92,0.04,,---,0.26,0.00,VWS V14.00,2013-05-10 10:26:00,
2013-05-10 05:30:00,60.5,58.2,29.73,WNW,288,0.0,5.0,92,0.04,,---,0.26,0.00,VWS V14.00,2013-05-10 10:30:00,
2013-05-10 05:31:00,60.5,58.2,29.73,WNW,288,0.0,5.0,92,0.04,,---,0.26,0.00,VWS V14.00,2013-05-10 10:31:00,
2013-05-10 05:36:00,60.5,58.2,29.75,WNW,288,4.0,4.0,92,0.04,,---,0.26,0.00,VWS V14.00,2013-05-10 10:36:00,
2013-05-10 05:40:00,60.5,58.2,29.76,WNW,288,2.0,5.0,92,0.04,,---,0.26,0.00,VWS V14.00,2013-05-10 10:40:00,
2013-05-10 05:41:00,60.5,58.2,29.76,WNW,288,2.0,5.0,92,0.04,,---,0.26,0.00,VWS V14.00,2013-05-10 10:41:00,
2013-05-10 05:46:00,60.5,58.2,29.76,WNW,288,4.0,4.0,92,0.03,,---,0.26,0.00,VWS V14.00,2013-05-10 10:46:00,
2013-05-10 05:50:00,60.5,58.5,29.76,WNW,288,4.0,6.0,93,0.03,,---,0.26,0.00,VWS V14.00,2013-05-10 10:50:00,
2013-05-10 05:51:00,60.5,58.5,29.76,WNW,288,4.0,6.0,93,0.03,,---,0.26,0.00,VWS V14.00,2013-05-10 10:51:00,
2013-05-10 05:56:00,60.5,58.5,29.77,WNW,288,0.0,5.0,93,0.04,,---,0.27,0.00,VWS V14.00,2013-05-10 10:56:00,
2013-05-10 06:00:00,60.6,58.6,29.81,WNW,288,4.0,8.0,93,0.05,,---,0.28,0.00,VWS V14.00,2013-05-10 11:00:00,
2013-05-10 06:01:00,60.7,58.7,29.81,WNW,288,5.0,8.0,93,0.05,,---,0.28,0.00,VWS V14.00,2013-05-10 11:01:00,
2013-05-10 06:06:00,60.7,58.7,29.82,WNW,288,5.0,7.0,93,0.04,,---,0.28,0.00,VWS V14.00,2013-05-10 11:06:00,
2013-05-10 06:10:00,60.6,58.6,29.83,WNW,300,6.0,8.0,93,0.05,,---,0.29,0.00,VWS V14.00,2013-05-10 11:10:00,
2013-05-10 06:11:00,60.6,58.6,29.83,WNW,294,7.0,8.0,93,0.05,,---,0.29,0.00,VWS V14.00,2013-05-10 11:11:00,
2013-05-10 06:16:00,60.6,58.6,29.84,WNW,298,5.0,11.0,93,0.04,,---,0.30,0.00,VWS V14.00,2013-05-10 11:16:00,
2013-05-10 06:20:00,60.5,58.8,29.84,WNW,297,2.0,11.0,94,0.06,,---,0.32,0.00,VWS V14.00,2013-05-10 11:20:00,
2013-05-10 06:21:00,60.5,58.5,29.84,WNW,297,2.0,11.0,93,0.06,,---,0.32,0.00,VWS V14.00,2013-05-10 11:21:00,
2013-05-10 06:26:00,60.6,58.9,29.84,WNW,299,7.0,11.0,94,0.07,,---,0.33,0.00,VWS V14.00,2013-05-10 11:26:00,
2013-05-10 06:30:00,60.8,59.1,29.83,NW,304,5.0,11.0,94,0.09,,---,0.35,0.00,VWS V14.00,2013-05-10 11:30:00,
2013-05-10 06:31:00,60.8,59.1,29.83,NW,304,5.0,11.0,94,0.08,,---,0.34,0.00,VWS V14.00,2013-05-10 11:31:00,
2013-05-10 06:36:00,60.9,59.2,29.83,WNW,302,6.0,13.0,94,0.10,,---,0.36,0.00,VWS V14.00,2013-05-10 11:36:00,
2013-05-10 06:40:00,61.0,59.3,29.84,NW,308,4.0,13.0,94,0.11,,---,0.37,0.00,VWS V14.00,2013-05-10 11:40:00,
2013-05-10 06:41:00,61.0,59.3,29.84,NW,308,6.0,13.0,94,0.11,,---,0.37,0.00,VWS V14.00,2013-05-10 11:41:00,
2013-05-10 06:46:00,61.1,59.4,29.85,NW,304,2.0,11.0,94,0.11,,---,0.37,0.00,VWS V14.00,2013-05-10 11:46:00,
2013-05-10 06:50:00,61.0,59.3,29.85,NW,304,5.0,11.0,94,0.12,,---,0.38,0.00,VWS V14.00,2013-05-10 11:50:00,
2013-05-10 06:51:00,61.0,59.3,29.85,NW,304,1.0,11.0,94,0.12,,---,0.38,0.00,VWS V14.00,2013-05-10 11:51:00,
2013-05-10 06:56:00,61.0,59.3,29.85,NW,304,7.0,8.0,94,0.13,,---,0.39,0.00,VWS V14.00,2013-05-10 11:56:00,
2013-05-10 07:00:00,60.9,59.2,29.79,NW,304,4.0,8.0,94,0.16,,---,0.42,0.00,VWS V14.00,2013-05-10 12:00:00,
2013-05-10 07:01:00,60.9,59.2,29.79,NW,304,2.0,8.0,94,0.16,,---,0.42,0.00,VWS V14.00,2013-05-10 12:01:00,
2013-05-10 07:06:00,60.6,58.9,29.76,NW,304,7.0,8.0,94,0.15,,---,0.43,0.00,VWS V14.00,2013-05-10 12:06:00,
2013-05-10 07:10:00,60.5,58.8,29.77,NW,304,1.0,8.0,94,0.15,,---,0.43,7.00,VWS V14.00,2013-05-10 12:10:00,
2013-05-10 07:11:00,60.5,58.8,29.77,NW,304,1.0,8.0,94,0.15,,---,0.43,5.00,VWS V14.00,2013-05-10 12:11:00,
2013-05-10 07:16:00,60.5,58.8,29.75,NW,304,7.0,7.0,94,0.14,,---,0.43,11.00,VWS V14.00,2013-05-10 12:16:00,
2013-05-10 07:20:00,60.4,58.7,29.72,NW,304,4.0,8.0,94,0.14,,---,0.43,12.00,VWS V14.00,2013-05-10 12:20:00,
2013-05-10 07:21:00,60.4,58.7,29.72,NW,304,5.0,8.0,94,0.14,,---,0.43,12.00,VWS V14.00,2013-05-10 12:21:00,
2013-05-10 07:26:00,60.4,58.7,29.72,NW,306,4.0,8.0,94,0.11,,---,0.43,23.00,VWS V14.00,2013-05-10 12:26:00,
2013-05-10 07:30:00,60.2,58.5,29.72,NW,306,4.0,8.0,94,0.11,,---,0.43,28.00,VWS V14.00,2013-05-10 12:30:00,
2013-05-10 07:31:00,60.3,58.6,29.72,NW,306,1.0,8.0,94,0.11,,---,0.43,28.00,VWS V14.00,2013-05-10 12:31:00,
2013-05-10 07:36:00,60.1,58.4,29.72,NW,309,4.0,8.0,94,0.08,,---,0.43,21.00,VWS V14.00,2013-05-10 12:36:00,
2013-05-10 07:40:00,60.1,58.4,29.72,NW,310,4.0,8.0,94,0.08,,---,0.43,19.00,VWS V14.00,2013-05-10 12:40:00,
2013-05-10 07:41:00,60.1,58.4,29.72,NW,310,5.0,8.0,94,0.08,,---,0.43,19.00,VWS V14.00,2013-05-10 12:41:00,
2013-05-10 07:46:00,60.1,58.4,29.74,NW,311,4.0,11.0,94,0.06,,---,0.43,21.00,VWS V14.00,2013-05-10 12:46:00,
2013-05-10 07:50:00,60.1,58.4,29.74,NW,314,4.0,11.0,94,0.06,,---,0.43,25.00,VWS V14.00,2013-05-10 12:50:00,
2013-05-10 07:51:00,60.1,58.4,29.74,NW,314,5.0,11.0,94,0.06,,---,0.43,23.00,VWS V14.00,2013-05-10 12:51:00,
2013-05-10 07:56:00,60.2,58.5,29.74,NW,314,4.0,8.0,94,0.05,,---,0.43,35.00,VWS V14.00,2013-05-10 12:56:00,
2013-05-10 08:00:00,60.3,58.9,29.75,NW,317,6.0,8.0,95,0.05,,---,0.43,83.00,VWS V14.00,2013-05-10 13:00:00,
2013-05-10 08:01:00,60.2,58.5,29.75,NW,315,5.0,8.0,94,0.05,,---,0.43,42.00,VWS V14.00,2013-05-10 13:01:00,
2013-05-10 08:06:00,60.5,59.1,29.75,NW,319,5.0,8.0,95,0.01,,---,0.43,181.00,VWS V14.00,2013-05-10 13:06:00,
2013-05-10 08:10:00,61.0,59.6,29.74,NNW,327,6.0,8.0,95,0.01,,---,0.43,204.00,VWS V14.00,2013-05-10 13:10:00,
2013-05-10 08:11:00,60.9,59.5,29.74,NW,326,7.0,8.0,95,0.01,,---,0.43,151.00,VWS V14.00,2013-05-10 13:11:00,
2013-05-10 08:16:00,61.3,59.9,29.75,NNW,348,5.0,9.0,95,0.00,,---,0.43,197.00,VWS V14.00,2013-05-10 13:16:00,
2013-05-10 08:20:00,61.6,60.2,29.75,North,350,4.0,9.0,95,0.00,,---,0.43,236.00,VWS V14.00,2013-05-10 13:20:00,
2013-05-10 08:25:00,61.9,60.5,29.74,North,351,4.0,8.0,95,0.00,,---,0.43,255.00,VWS V14.00,2013-05-10 13:25:00,
2013-05-10 08:30:00,62.2,60.8,29.75,North,351,5.0,8.0,95,0.00,,---,0.43,281.00,VWS V14.00,2013-05-10 13:30:00,
2013-05-10 08:35:00,62.6,61.2,29.75,North,351,4.0,6.0,95,0.01,,---,0.44,301.00,VWS V14.00,2013-05-10 13:35:00,
2013-05-10 08:40:00,62.7,61.2,29.75,North,355,5.0,9.0,95,0.01,,---,0.44,309.00,VWS V14.00,2013-05-10 13:40:00,
2013-05-10 08:51:00,63.2,61.5,29.75,North,360,3.0,3.0,94,0.00,,---,0.44,359.00,VWS V14.00,2013-05-10 13:51:00,
2013-05-10 08:56:00,63.4,61.7,29.75,North,11,5.0,9.0,94,0.01,,---,0.44,385.00,VWS V14.00,2013-05-10 13:56:00,
2013-05-10 09:01:00,63.6,61.5,29.76,NNE,21,7.0,10.0,93,0.01,,---,0.44,410.00,VWS V14.00,2013-05-10 14:01:00,
2013-05-10 09:06:00,63.9,61.8,29.76,NNE,24,6.0,9.0,93,0.01,,---,0.44,429.00,VWS V14.00,2013-05-10 14:06:00,
2013-05-10 09:11:00,64.2,61.5,29.75,NNE,24,4.0,9.0,91,0.01,,---,0.44,446.00,VWS V14.00,2013-05-10 14:11:00,
2013-05-10 09:16:00,64.5,61.8,29.75,NNE,24,4.0,8.0,91,0.01,,---,0.44,468.00,VWS V14.00,2013-05-10 14:16:00,
2013-05-10 09:21:00,64.9,61.9,29.75,NNE,24,3.0,9.0,90,0.01,,---,0.44,413.00,VWS V14.00,2013-05-10 14:21:00,
2013-05-10 09:26:00,65.4,62.1,29.75,NNE,24,2.0,8.0,89,0.01,,---,0.44,529.00,VWS V14.00,2013-05-10 14:26:00,
2013-05-10 09:31:00,65.8,62.5,29.75,NNE,24,4.0,8.0,89,0.01,,---,0.44,573.00,VWS V14.00,2013-05-10 14:31:00,
2013-05-10 09:36:00,66.2,62.2,29.75,NNE,24,3.0,7.0,87,0.01,,---,0.44,316.00,VWS V14.00,2013-05-10 14:36:00,
2013-05-10 09:42:00,66.4,62.1,29.76,NNE,24,4.0,4.0,86,0.00,,---,0.44,257.00,VWS V14.00,2013-05-10 14:42:00,
2013-05-10 09:47:00,66.5,62.2,29.76,NNE,24,0.0,5.0,86,0.00,,---,0.44,251.00,VWS V14.00,2013-05-10 14:47:00,
2013-05-10 09:52:00,66.6,62.3,29.76,NNE,24,3.0,3.0,86,0.00,,---,0.44,243.00,VWS V14.00,2013-05-10 14:52:00,
2013-05-10 09:57:00,66.7,62.4,29.77,NNE,24,0.0,3.0,86,0.00,,---,0.44,276.00,VWS V14.00,2013-05-10 14:57:00,
2013-05-10 10:02:00,66.9,62.6,29.76,NNE,24,0.0,0.0,86,0.00,,---,0.44,302.00,VWS V14.00,2013-05-10 15:02:00,
2013-05-10 10:07:00,67.3,63.3,29.75,NNE,24,1.0,3.0,87,0.00,,---,0.44,763.00,VWS V14.00,2013-05-10 15:07:00,
2013-05-10 10:12:00,67.8,63.8,29.76,NNE,24,3.0,5.0,87,0.00,,---,0.44,313.00,VWS V14.00,2013-05-10 15:12:00,
2013-05-10 10:17:00,68.2,63.5,29.76,NNE,24,0.0,7.0,85,0.00,,---,0.44,246.00,VWS V14.00,2013-05-10 15:17:00,
2013-05-10 10:22:00,68.3,63.3,29.76,NNE,24,0.0,0.0,84,0.00,,---,0.44,200.00,VWS V14.00,2013-05-10 15:22:00,
2013-05-10 10:27:00,68.4,63.4,29.76,NNE,24,1.0,2.0,84,0.00,,---,0.44,163.00,VWS V14.00,2013-05-10 15:27:00,
2013-05-10 10:32:00,68.4,62.7,29.77,NNE,24,2.0,5.0,82,0.00,,---,0.44,139.00,VWS V14.00,2013-05-10 15:32:00,
2013-05-10 10:37:00,68.2,62.5,29.77,NNE,24,2.0,5.0,82,0.00,,---,0.44,120.00,VWS V14.00,2013-05-10 15:37:00,
2013-05-10 10:42:00,68.1,62.4,29.77,NNE,24,1.0,3.0,82,0.00,,---,0.44,125.00,VWS V14.00,2013-05-10 15:42:00,
2013-05-10 10:47:00,68.0,62.3,29.77,NNE,24,0.0,3.0,82,0.00,,---,0.44,134.00,VWS V14.00,2013-05-10 15:47:00,
2013-05-10 10:52:00,67.9,62.2,29.77,NNE,24,1.0,1.0,82,0.00,,---,0.44,165.00,VWS V14.00,2013-05-10 15:52:00,
2013-05-10 10:57:00,67.9,62.2,29.75,NNE,24,4.0,6.0,82,0.00,,---,0.44,209.00,VWS V14.00,2013-05-10 15:57:00,
2013-05-10 11:02:00,67.9,62.2,29.74,NNE,23,4.0,4.0,82,0.00,,---,0.44,287.00,VWS V14.00,2013-05-10 16:02:00,
2013-05-10 11:07:00,68.0,62.7,29.74,NNE,24,1.0,4.0,83,0.00,,---,0.44,390.00,VWS V14.00,2013-05-10 16:07:00,
2013-05-10 11:12:00,68.3,62.9,29.74,NNE,24,4.0,6.0,83,0.00,,---,0.44,262.00,VWS V14.00,2013-05-10 16:12:00,
2013-05-10 11:17:00,68.5,62.8,29.74,NNE,24,4.0,6.0,82,0.00,,---,0.44,480.00,VWS V14.00,2013-05-10 16:17:00,
2013-05-10 11:22:00,68.8,62.7,29.75,NNE,24,5.0,5.0,81,0.00,,---,0.44,554.00,VWS V14.00,2013-05-10 16:22:00,
2013-05-10 11:27:00,69.3,63.2,29.76,NNE,24,6.0,7.0,81,0.00,,---,0.44,756.00,VWS V14.00,2013-05-10 16:27:00,
2013-05-10 11:32:00,69.9,63.8,29.77,NNE,24,2.0,4.0,81,0.00,,---,0.44,206.00,VWS V14.00,2013-05-10 16:32:00,
2013-05-10 11:37:00,70.4,63.6,29.77,NNE,24,3.0,6.0,79,0.00,,---,0.44,443.00,VWS V14.00,2013-05-10 16:37:00,
2013-05-10 11:42:00,70.7,63.5,29.77,NNE,24,0.0,3.0,78,0.00,,---,0.44,482.00,VWS V14.00,2013-05-10 16:42:00,
2013-05-10 11:47:00,71.0,63.8,29.77,NNE,24,0.0,5.0,78,0.00,,---,0.44,540.00,VWS V14.00,2013-05-10 16:47:00,
2013-05-10 11:52:00,71.3,63.7,29.77,NNE,24,4.0,4.0,77,0.00,,---,0.44,475.00,VWS V14.00,2013-05-10 16:52:00,
2013-05-10 11:57:00,71.5,63.5,29.77,NNE,24,1.0,5.0,76,0.00,,---,0.44,264.00,VWS V14.00,2013-05-10 16:57:00,
2013-05-10 12:02:00,71.6,64.0,29.76,NNE,24,2.0,3.0,77,0.00,,---,0.44,466.00,VWS V14.00,2013-05-10 17:02:00,
2013-05-10 12:07:00,71.9,64.7,29.75,NNE,23,3.0,7.0,78,0.00,,---,0.44,1102.00,VWS V14.00,2013-05-10 17:07:00,
2013-05-10 12:12:00,72.4,65.5,29.76,NNE,19,5.0,8.0,79,0.00,,---,0.44,1239.00,VWS V14.00,2013-05-10 17:12:00,
2013-05-10 12:17:00,72.6,64.6,29.77,NNE,19,3.0,9.0,76,0.00,,---,0.44,364.00,VWS V14.00,2013-05-10 17:17:00,
2013-05-10 12:22:00,72.3,64.3,29.78,NNE,19,4.0,4.0,76,0.00,,---,0.44,459.00,VWS V14.00,2013-05-10 17:22:00,
2013-05-10 12:27:00,72.2,64.6,29.77,NNE,19,1.0,5.0,77,0.00,,---,0.44,577.00,VWS V14.00,2013-05-10 17:27:00,
2013-05-10 12:32:00,72.1,63.8,29.78,NNE,15,3.0,4.0,75,0.00,,---,0.44,443.00,VWS V14.00,2013-05-10 17:32:00,
2013-05-10 12:37:00,72.1,64.1,29.78,NNE,15,3.0,6.0,76,0.00,,---,0.44,650.00,VWS V14.00,2013-05-10 17:37:00,
2013-05-10 12:42:00,72.4,64.8,29.78,NNE,15,3.0,5.0,77,0.00,,---,0.44,541.00,VWS V14.00,2013-05-10 17:42:00,
2013-05-10 12:47:00,72.5,64.5,29.78,NNE,15,4.0,9.0,76,0.00,,---,0.44,598.00,VWS V14.00,2013-05-10 17:47:00,
2013-05-10 12:52:00,72.6,64.6,29.78,North,355,7.0,9.0,76,0.00,,---,0.44,802.00,VWS V14.00,2013-05-10 17:52:00,
2013-05-10 12:57:00,72.6,64.6,29.77,North,351,5.0,11.0,76,0.00,,---,0.44,1151.00,VWS V14.00,2013-05-10 17:57:00,
2013-05-10 13:02:00,73.0,65.4,29.77,North,350,9.0,10.0,77,0.00,,---,0.44,1092.00,VWS V14.00,2013-05-10 18:02:00,
2013-05-10 13:07:00,73.2,65.2,29.76,NNW,346,7.0,12.0,76,0.00,,---,0.44,983.00,VWS V14.00,2013-05-10 18:07:00,
2013-05-10 13:12:00,73.4,65.4,29.76,NNW,346,5.0,5.0,76,0.00,,---,0.44,1095.00,VWS V14.00,2013-05-10 18:12:00,
2013-05-10 13:17:00,73.9,66.2,29.75,NNW,346,7.0,7.0,77,0.00,,---,0.44,1083.00,VWS V14.00,2013-05-10 18:17:00,
2013-05-10 13:22:00,74.3,65.5,29.75,NNW,346,2.0,4.0,74,0.00,,---,0.44,1067.00,VWS V14.00,2013-05-10 18:22:00,
2013-05-10 13:27:00,74.8,65.2,29.75,NNW,346,5.0,9.0,72,0.00,,---,0.44,974.00,VWS V14.00,2013-05-10 18:27:00,
2013-05-10 13:32:00,75.5,66.2,29.75,NNW,346,5.0,5.0,73,0.00,,---,0.44,1060.00,VWS V14.00,2013-05-10 18:32:00,
2013-05-10 13:37:00,75.8,64.9,29.75,NNW,346,5.0,9.0,69,0.00,,---,0.44,1034.00,VWS V14.00,2013-05-10 18:37:00,
2013-05-10 13:42:00,75.8,64.9,29.74,NNW,346,4.0,6.0,69,0.00,,---,0.44,1013.00,VWS V14.00,2013-05-10 18:42:00,
2013-05-10 13:47:00,76.2,64.9,29.74,NNW,346,2.0,6.0,68,0.00,,---,0.44,1005.00,VWS V14.00,2013-05-10 18:47:00,
2013-05-10 13:52:00,76.2,64.9,29.73,NNW,346,0.0,1.0,68,0.00,,---,0.44,1004.00,VWS V14.00,2013-05-10 18:52:00,
2013-05-10 13:57:00,76.4,64.6,29.73,NNW,346,5.0,7.0,67,0.00,,---,0.44,998.00,VWS V14.00,2013-05-10 18:57:00,
2013-05-10 14:02:00,76.3,63.7,29.73,NNW,346,8.0,8.0,65,0.00,,---,0.44,997.00,VWS V14.00,2013-05-10 19:02:00,
2013-05-10 14:07:00,76.3,63.7,29.73,NNW,346,4.0,9.0,65,0.00,,---,0.44,997.00,VWS V14.00,2013-05-10 19:07:00,
2013-05-10 14:12:00,76.4,63.3,29.73,NNW,346,1.0,2.0,64,0.00,,---,0.44,997.00,VWS V14.00,2013-05-10 19:12:00,
2013-05-10 14:17:00,76.6,63.1,29.72,NNW,346,5.0,7.0,63,0.00,,---,0.44,990.00,VWS V14.00,2013-05-10 19:17:00,
2013-05-10 14:22:00,77.1,63.1,29.72,NNW,346,5.0,7.0,62,0.00,,---,0.44,984.00,VWS V14.00,2013-05-10 19:22:00,
2013-05-10 14:27:00,77.2,63.6,29.71,NNW,346,4.0,8.0,63,0.00,,---,0.44,981.00,VWS V14.00,2013-05-10 19:27:00,
2013-05-10 14:32:00,77.4,63.8,29.71,NNW,346,1.0,4.0,63,0.00,,---,0.44,983.00,VWS V14.00,2013-05-10 19:32:00,
2013-05-10 14:37:00,77.9,63.8,29.71,NNW,346,6.0,7.0,62,0.00,,---,0.44,976.00,VWS V14.00,2013-05-10 19:37:00,
2013-05-10 14:42:00,78.2,63.2,29.70,NNW,346,7.0,7.0,60,0.00,,---,0.44,967.00,VWS V14.00,2013-05-10 19:42:00,
2013-05-10 14:47:00,78.3,63.3,29.70,NNW,346,1.0,7.0,60,0.00,,---,0.44,958.00,VWS V14.00,2013-05-10 19:47:00,
2013-05-10 14:52:00,78.7,61.2,29.70,NNW,346,4.0,4.0,55,0.00,,---,0.44,956.00,VWS V14.00,2013-05-10 19:52:00,
2013-05-10 14:57:00,79.0,62.5,29.70,North,5,0.0,9.0,57,0.00,,---,0.44,946.00,VWS V14.00,2013-05-10 19:57:00,
2013-05-10 15:02:00,79.1,62.1,29.70,North,10,3.0,5.0,56,0.00,,---,0.44,944.00,VWS V14.00,2013-05-10 20:02:00,
2013-05-10 15:07:00,79.3,61.8,29.70,North,10,4.0,5.0,55,0.00,,---,0.44,935.00,VWS V14.00,2013-05-10 20:07:00,
2013-05-10 15:12:00,79.5,62.5,29.70,North,10,0.0,0.0,56,0.00,,---,0.44,928.00,VWS V14.00,2013-05-10 20:12:00,
2013-05-10 15:17:00,79.8,61.7,29.70,NNE,14,4.0,8.0,54,0.00,,---,0.44,919.00,VWS V14.00,2013-05-10 20:17:00,
2013-05-10 15:22:00,80.1,60.9,29.70,NNE,14,3.0,3.0,52,0.00,,---,0.44,914.00,VWS V14.00,2013-05-10 20:22:00,
2013-05-10 15:27:00,80.2,59.9,29.70,NNE,14,1.0,5.0,50,0.00,,---,0.44,882.00,VWS V14.00,2013-05-10 20:27:00,
2013-05-10 15:32:00,80.4,61.2,29.69,NNE,15,1.0,3.0,52,0.00,,---,0.44,877.00,VWS V14.00,2013-05-10 20:32:00,
2013-05-10 15:37:00,80.7,62.5,29.69,NNE,15,0.0,4.0,54,0.00,,---,0.44,673.00,VWS V14.00,2013-05-10 20:37:00,
2013-05-10 15:42:00,80.8,60.4,29.69,NNE,15,3.0,3.0,50,0.00,,---,0.44,791.00,VWS V14.00,2013-05-10 20:42:00,
2013-05-10 15:47:00,80.9,60.5,29.69,NNE,15,1.0,6.0,50,0.00,,---,0.44,853.00,VWS V14.00,2013-05-10 20:47:00,
2013-05-10 15:52:00,81.0,60.6,29.68,NNE,15,0.0,0.0,50,0.00,,---,0.44,918.00,VWS V14.00,2013-05-10 20:52:00,
2013-05-10 15:57:00,81.3,60.3,29.68,NNE,15,4.0,4.0,49,0.00,,---,0.44,747.00,VWS V14.00,2013-05-10 20:57:00,
2013-05-10 16:02:00,81.5,60.5,29.69,NNE,15,3.0,4.0,49,0.00,,---,0.44,798.00,VWS V14.00,2013-05-10 21:02:00,
2013-05-10 16:07:00,81.4,59.8,29.69,NNE,15,4.0,6.0,48,0.00,,---,0.44,606.00,VWS V14.00,2013-05-10 21:07:00,
2013-05-10 16:12:00,81.4,60.4,29.68,NNE,15,5.0,6.0,49,0.00,,---,0.44,642.00,VWS V14.00,2013-05-10 21:12:00,
2013-05-10 16:17:00,81.5,59.9,29.68,NNE,15,0.0,6.0,48,0.00,,---,0.44,615.00,VWS V14.00,2013-05-10 21:17:00,
2013-05-10 16:22:00,81.6,59.4,29.68,NNE,15,5.0,5.0,47,0.00,,---,0.44,712.00,VWS V14.00,2013-05-10 21:22:00,
2013-05-10 16:27:00,81.8,59.0,29.68,NNE,15,3.0,5.0,46,0.00,,---,0.44,724.00,VWS V14.00,2013-05-10 21:27:00,
2013-05-10 16:32:00,81.9,58.5,29.68,NNE,15,3.0,3.0,45,0.00,,---,0.44,483.00,VWS V14.00,2013-05-10 21:32:00,
2013-05-10 16:37:00,81.8,59.6,29.68,NNE,15,1.0,4.0,47,0.00,,---,0.44,380.00,VWS V14.00,2013-05-10 21:37:00,
2013-05-10 16:42:00,81.7,58.9,29.68,NNE,15,8.0,8.0,46,0.00,,---,0.44,371.00,VWS V14.00,2013-05-10 21:42:00,
2013-05-10 16:47:00,81.4,59.8,29.68,NNE,15,2.0,8.0,48,0.00,,---,0.44,413.00,VWS V14.00,2013-05-10 21:47:00,
2013-05-10 16:52:00,81.1,60.7,29.68,NNE,15,0.0,1.0,50,0.00,,---,0.44,441.00,VWS V14.00,2013-05-10 21:52:00,
2013-05-10 16:57:00,81.1,60.2,29.68,NNE,15,1.0,3.0,49,0.00,,---,0.44,338.00,VWS V14.00,2013-05-10 21:57:00,
2013-05-10 16:58:00,81.1,60.2,29.68,NNE,15,3.0,3.0,49,0.00,,---,0.44,325.00,VWS V14.00,2013-05-10 21:58:00,
2013-05-10 17:03:00,81.1,60.7,29.67,NNE,15,2.0,3.0,50,0.00,,---,0.44,438.00,VWS V14.00,2013-05-10 22:03:00,
2013-05-10 17:08:00,81.1,61.3,29.66,NNE,15,0.0,4.0,51,0.00,,---,0.44,353.00,VWS V14.00,2013-05-10 22:08:00,
2013-05-10 17:13:00,81.3,61.5,29.66,NNE,15,1.0,4.0,51,0.00,,---,0.44,410.00,VWS V14.00,2013-05-10 22:13:00,
2013-05-10 17:18:00,81.4,61.0,29.66,NNE,15,0.0,4.0,50,0.00,,---,0.44,536.00,VWS V14.00,2013-05-10 22:18:00,
2013-05-10 17:23:00,81.5,61.1,29.66,NNE,15,1.0,1.0,50,0.00,,---,0.44,336.00,VWS V14.00,2013-05-10 22:23:00,
2013-05-10 17:28:00,81.4,61.0,29.66,NNE,15,3.0,5.0,50,0.00,,---,0.44,304.00,VWS V14.00,2013-05-10 22:28:00,
2013-05-10 17:33:00,81.1,60.7,29.66,NNE,15,2.0,5.0,50,0.00,,---,0.44,274.00,VWS V14.00,2013-05-10 22:33:00,
2013-05-10 17:38:00,80.7,61.5,29.66,NNE,15,1.0,6.0,52,0.00,,---,0.44,332.00,VWS V14.00,2013-05-10 22:38:00,
2013-05-10 17:43:00,80.5,61.8,29.67,NNE,15,4.0,5.0,53,0.00,,---,0.44,287.00,VWS V14.00,2013-05-10 22:43:00,
2013-05-10 17:48:00,80.3,61.6,29.67,NNE,15,3.0,5.0,53,0.00,,---,0.44,364.00,VWS V14.00,2013-05-10 22:48:00,
2013-05-10 17:53:00,80.2,61.5,29.67,NNE,15,4.0,4.0,53,0.00,,---,0.44,302.00,VWS V14.00,2013-05-10 22:53:00,
2013-05-10 17:58:00,80.1,62.0,29.67,NNE,15,4.0,5.0,54,0.00,,---,0.44,309.00,VWS V14.00,2013-05-10 22:58:00,
2013-05-10 18:03:00,80.0,62.4,29.67,NNE,15,4.0,7.0,55,0.00,,---,0.44,271.00,VWS V14.00,2013-05-10 23:03:00,
2013-05-10 18:08:00,79.8,63.2,29.67,NNE,15,3.0,7.0,57,0.00,,---,0.44,243.00,VWS V14.00,2013-05-10 23:08:00,
2013-05-10 18:13:00,79.5,63.0,29.67,NNE,15,2.0,6.0,57,0.00,,---,0.44,204.00,VWS V14.00,2013-05-10 23:13:00,
2013-05-10 18:18:00,79.3,62.8,29.68,NNE,15,4.0,7.0,57,0.00,,---,0.44,132.00,VWS V14.00,2013-05-10 23:18:00,
2013-05-10 18:23:00,78.9,62.4,29.68,NNE,15,3.0,7.0,57,0.00,,---,0.44,60.00,VWS V14.00,2013-05-10 23:23:00,
2013-05-10 18:28:00,77.8,60.9,29.73,WNW,297,11.0,22.0,56,0.00,,---,0.44,9.00,VWS V14.00,2013-05-10 23:28:00,
2013-05-10 18:33:00,74.5,59.7,29.75,WNW,294,8.0,15.0,60,0.00,,---,0.44,5.00,VWS V14.00,2013-05-10 23:33:00,
2013-05-10 18:38:00,71.7,58.9,29.75,West,273,8.0,24.0,64,0.00,,---,0.44,9.00,VWS V14.00,2013-05-10 23:38:00,
2013-05-10 18:43:00,70.2,59.2,29.76,West,276,9.0,9.0,68,0.00,,---,0.44,19.00,VWS V14.00,2013-05-10 23:43:00,
2013-05-10 18:48:00,68.8,59.0,29.77,North,355,5.0,10.0,71,0.00,,---,0.44,28.00,VWS V14.00,2013-05-10 23:48:00,
2013-05-10 18:53:00,67.8,58.8,29.76,WNW,295,7.0,9.0,73,0.00,,---,0.44,51.00,VWS V14.00,2013-05-10 23:53:00,
2013-05-10 18:58:00,67.1,58.9,29.78,WNW,292,6.0,11.0,75,0.00,,---,0.44,40.00,VWS V14.00,2013-05-10 23:58:00,
2013-05-10 19:03:00,66.6,58.8,29.77,WNW,290,5.0,7.0,76,0.00,,---,0.44,35.00,VWS V14.00,2013-05-11 00:03:00,
2013-05-10 19:08:00,66.3,58.9,29.77,WNW,284,6.0,12.0,77,0.00,,---,0.44,42.00,VWS V14.00,2013-05-11 00:08:00,
2013-05-10 19:13:00,65.9,58.9,29.78,WNW,283,4.0,9.0,78,0.00,,---,0.44,39.00,VWS V14.00,2013-05-11 00:13:00,
2013-05-10 19:18:00,65.6,58.9,29.78,WNW,283,12.0,12.0,79,0.00,,---,0.44,39.00,VWS V14.00,2013-05-11 00:18:00,
2013-05-10 19:23:00,65.4,58.7,29.77,WNW,282,6.0,6.0,79,0.00,,---,0.44,46.00,VWS V14.00,2013-05-11 00:23:00,
2013-05-10 19:28:00,65.3,59.0,29.78,WNW,282,4.0,8.0,80,0.00,,---,0.44,56.00,VWS V14.00,2013-05-11 00:28:00,
2013-05-10 19:33:00,65.2,59.2,29.78,WNW,282,2.0,9.0,81,0.00,,---,0.44,63.00,VWS V14.00,2013-05-11 00:33:00,
2013-05-10 19:38:00,65.2,59.2,29.79,WNW,282,4.0,9.0,81,0.00,,---,0.44,88.00,VWS V14.00,2013-05-11 00:38:00,
2013-05-10 19:43:00,65.2,59.2,29.79,WNW,282,0.0,7.0,81,0.00,,---,0.44,58.00,VWS V14.00,2013-05-11 00:43:00,
2013-05-10 19:48:00,65.2,59.2,29.79,WNW,282,1.0,7.0,81,0.00,,---,0.44,49.00,VWS V14.00,2013-05-11 00:48:00,
2013-05-10 19:53:00,65.2,59.6,29.80,WNW,282,4.0,4.0,82,0.00,,---,0.44,37.00,VWS V14.00,2013-05-11 00:53:00,
2013-05-10 19:58:00,65.2,59.6,29.81,WNW,282,0.0,6.0,82,0.00,,---,0.44,46.00,VWS V14.00,2013-05-11 00:58:00,
2013-05-10 20:03:00,65.2,59.6,29.81,WNW,282,1.0,2.0,82,0.00,,---,0.44,35.00,VWS V14.00,2013-05-11 01:03:00,
2013-05-10 20:08:00,65.2,59.6,29.81,WNW,282,1.0,4.0,82,0.00,,---,0.44,28.00,VWS V14.00,2013-05-11 01:08:00,
2013-05-10 20:13:00,65.2,59.6,29.81,WNW,282,0.0,2.0,82,0.00,,---,0.44,14.00,VWS V14.00,2013-05-11 01:13:00,
2013-05-10 20:18:00,65.2,59.6,29.80,WNW,282,4.0,7.0,82,0.00,,---,0.44,5.00,VWS V14.00,2013-05-11 01:18:00,
2013-05-10 20:23:00,65.0,59.4,29.81,WNW,282,4.0,5.0,82,0.00,,---,0.44,0.00,VWS V14.00,2013-05-11 01:23:00,
2013-05-10 20:28:00,64.9,59.6,29.82,WNW,282,5.0,5.0,83,0.00,,---,0.44,0.00,VWS V14.00,2013-05-11 01:28:00,
2013-05-10 20:33:00,64.7,59.4,29.82,WNW,282,2.0,5.0,83,0.00,,---,0.44,0.00,VWS V14.00,2013-05-11 01:33:00,
2013-05-10 20:38:00,64.5,59.6,29.83,West,278,5.0,9.0,84,0.00,,---,0.44,0.00,VWS V14.00,2013-05-11 01:38:00,
2013-05-10 20:43:00,64.3,59.4,29.82,West,277,4.0,8.0,84,0.00,,---,0.44,0.00,VWS V14.00,2013-05-11 01:43:00,
2013-05-10 20:48:00,64.2,59.3,29.82,West,276,2.0,8.0,84,0.00,,---,0.44,0.00,VWS V14.00,2013-05-11 01:48:00,
2013-05-10 20:53:00,64.1,59.2,29.82,West,274,7.0,8.0,84,0.00,,---,0.44,0.00,VWS V14.00,2013-05-11 01:53:00,
2013-05-10 20:58:00,64.0,59.4,29.82,West,267,5.0,8.0,85,0.00,,---,0.44,0.00,VWS V14.00,2013-05-11 01:58:00,
2013-05-10 21:03:00,63.9,59.3,29.83,West,265,3.0,7.0,85,0.00,,---,0.44,0.00,VWS V14.00,2013-05-11 02:03:00,
2013-05-10 21:08:00,63.8,59.2,29.83,West,265,3.0,7.0,85,0.00,,---,0.44,0.00,VWS V14.00,2013-05-11 02:08:00,
2013-05-10 21:13:00,63.6,59.3,29.83,West,265,8.0,8.0,86,0.00,,---,0.44,0.00,VWS V14.00,2013-05-11 02:13:00,
2013-05-10 21:18:00,63.5,59.2,29.83,West,265,0.0,8.0,86,0.00,,---,0.44,0.00,VWS V14.00,2013-05-11 02:18:00,
2013-05-10 21:23:00,63.4,59.2,29.83,West,261,7.0,7.0,86,0.00,,---,0.44,0.00,VWS V14.00,2013-05-11 02:23:00,
2013-05-10 21:28:00,63.2,59.0,29.83,WSW,254,4.0,10.0,86,0.00,,---,0.44,0.00,VWS V14.00,2013-05-11 02:28:00,
2013-05-10 21:33:00,63.1,58.8,29.83,WSW,254,3.0,5.0,86,0.00,,---,0.44,0.00,VWS V14.00,2013-05-11 02:33:00,
2013-05-10 21:38:00,63.0,59.1,29.83,WSW,254,4.0,6.0,87,0.00,,---,0.44,0.00,VWS V14.00,2013-05-11 02:38:00,
2013-05-10 21:43:00,62.9,59.0,29.83,WSW,254,3.0,5.0,87,0.00,,---,0.44,0.00,VWS V14.00,2013-05-11 02:43:00,
2013-05-10 21:48:00,62.8,59.2,29.83,WSW,254,3.0,6.0,88,0.00,,---,0.44,0.00,VWS V14.00,2013-05-11 02:48:00,
2013-05-10 21:53:00,62.7,59.1,29.84,WSW,254,1.0,4.0,88,0.00,,---,0.44,0.00,VWS V14.00,2013-05-11 02:53:00,
2013-05-10 21:58:00,62.6,59.0,29.85,WSW,254,0.0,4.0,88,0.00,,---,0.44,0.00,VWS V14.00,2013-05-11 02:58:00,
2013-05-10 22:03:00,62.6,59.0,29.85,WSW,254,2.0,4.0,88,0.00,,---,0.44,0.00,VWS V14.00,2013-05-11 03:03:00,
2013-05-10 22:08:00,62.5,58.9,29.85,WSW,254,0.0,4.0,88,0.00,,---,0.44,0.00,VWS V14.00,2013-05-11 03:08:00,
2013-05-10 22:13:00,62.4,59.1,29.85,WSW,254,0.0,0.0,89,0.00,,---,0.44,0.00,VWS V14.00,2013-05-11 03:13:00,
2013-05-10 22:18:00,62.3,59.0,29.85,WSW,254,0.0,0.0,89,0.00,,---,0.44,0.00,VWS V14.00,2013-05-11 03:18:00,
2013-05-10 22:23:00,62.3,59.0,29.85,WSW,254,0.0,0.0,89,0.00,,---,0.44,0.00,VWS V14.00,2013-05-11 03:23:00,
2013-05-10 22:28:00,62.1,58.8,29.85,WSW,254,0.0,0.0,89,0.00,,---,0.44,0.00,VWS V14.00,2013-05-11 03:28:00,
2013-05-10 22:33:00,62.0,58.7,29.85,WSW,254,0.0,0.0,89,0.00,,---,0.44,0.00,VWS V14.00,2013-05-11 03:33:00,
2013-05-10 22:38:00,61.9,58.6,29.85,WSW,254,0.0,0.0,89,0.00,,---,0.44,0.00,VWS V14.00,2013-05-11 03:38:00,
2013-05-10 22:43:00,61.7,58.4,29.85,WSW,254,0.0,0.0,89,0.00,,---,0.44,0.00,VWS V14.00,2013-05-11 03:43:00,
2013-05-10 22:48:00,61.6,58.3,29.85,WSW,254,0.0,0.0,89,0.00,,---,0.44,0.00,VWS V14.00,2013-05-11 03:48:00,
2013-05-10 22:53:00,61.6,58.3,29.86,WSW,254,0.0,0.0,89,0.00,,---,0.44,0.00,VWS V14.00,2013-05-11 03:53:00,
2013-05-10 22:58:00,61.3,58.0,29.85,WSW,254,0.0,0.0,89,0.00,,---,0.44,0.00,VWS V14.00,2013-05-11 03:58:00,
2013-05-10 23:01:00,61.2,58.2,29.85,WSW,254,0.0,0.0,90,0.00,,---,0.44,0.00,VWS V14.00,2013-05-11 04:01:00,
2013-05-10 23:06:00,61.1,58.2,29.85,WSW,254,0.0,0.0,90,0.00,,---,0.44,0.00,VWS V14.00,2013-05-11 04:06:00,
2013-05-10 23:11:00,61.1,58.2,29.85,WSW,254,0.0,0.0,90,0.00,,---,0.44,0.00,VWS V14.00,2013-05-11 04:11:00,
2013-05-10 23:16:00,61.1,58.5,29.84,WSW,254,0.0,0.0,91,0.00,,---,0.44,0.00,VWS V14.00,2013-05-11 04:16:00,
2013-05-10 23:21:00,61.1,58.5,29.83,WSW,254,0.0,0.0,91,0.00,,---,0.44,0.00,VWS V14.00,2013-05-11 04:21:00,
2013-05-10 23:26:00,61.0,58.4,29.83,WSW,254,0.0,0.0,91,0.00,,---,0.44,0.00,VWS V14.00,2013-05-11 04:26:00,
2013-05-10 23:31:00,61.0,58.4,29.85,WSW,254,0.0,0.0,91,0.00,,---,0.44,0.00,VWS V14.00,2013-05-11 04:31:00,
2013-05-10 23:36:00,60.9,58.3,29.86,WSW,254,0.0,0.0,91,0.00,,---,0.44,0.00,VWS V14.00,2013-05-11 04:36:00,
2013-05-10 23:41:00,60.8,58.2,29.86,WSW,254,0.0,0.0,91,0.00,,---,0.44,0.00,VWS V14.00,2013-05-11 04:41:00,
2013-05-10 23:46:00,60.8,58.2,29.86,WSW,254,0.0,0.0,91,0.00,,---,0.44,0.00,VWS V14.00,2013-05-11 04:46:00,
2013-05-10 23:51:00,60.7,58.1,29.86,WSW,254,0.0,0.0,91,0.00,,---,0.44,0.00,VWS V14.00,2013-05-11 04:51:00,
2013-05-10 23:56:00,60.6,58.0,29.86,WSW,254,0.0,0.0,91,0.00,,---,0.44,0.00,VWS V14.00,2013-05-11 04:56:00,